This demonstration page uses our WeatherBlox Daily Observations layout. Learn more.

Left ArrowRight Arrow

53.62937, 11.41316

Hourly Observations for April 19, 2022

Temp ( °F °C ) Dew Point ( °F °C ) Humidity (%) Winds ( mph kmh ) Pressure ( in mb ) Visibility ( mi km ) Precip ( " mm )
12:20 am 00:20 Mostly Clear 41 5 36 2 81 81 Calm 30.06 1018 30 48 N/A
12:50 am 00:50 Mostly Clear 41 5 37 3 87 87 VRB 2 4 30.06 1018 30 48 N/A
1:20 am 01:20 Mostly Clear 41 5 36 2 81 81 NNE 2 4 30.06 1018 30 48 N/A
1:50 am 01:50 Mostly Clear 41 5 36 2 81 81 ENE 6 9 30.06 1018 30 48 N/A
2:20 am 02:20 Mostly Clear 39 4 37 3 93 93 ENE 6 9 30.06 1018 30 48 N/A
2:50 am 02:50 Mostly Clear 39 4 37 3 93 93 E 5 7 30.06 1018 30 48 N/A
3:20 am 03:20 Mostly Clear 37 3 36 2 93 93 Calm 30.03 1017 30 48 N/A
3:50 am 03:50 Mostly Clear 37 3 36 2 93 93 Calm 30.03 1017 30 48 N/A
4:20 am 04:20 Mostly Clear 37 3 36 2 93 93 E 2 4 30.03 1017 1 2 N/A
4:50 am 04:50 Mostly Clear 36 2 34 1 93 93 VRB 2 4 30.03 1017 2 3 N/A
5:20 am 05:20 Mostly Clear 34 1 32 0 93 93 ENE 2 4 30.03 1017 3 5 N/A
5:50 am 05:50 Mostly Clear 34 1 34 1 100 100 Calm 30.03 1017 30 48 N/A
6:20 am 06:20 Mostly Sunny 36 2 34 1 93 93 Calm 30.03 1017 7 11 N/A
6:50 am 06:50 Mostly Sunny 36 2 36 2 100 100 Calm 30.03 1017 7 11 N/A
7:20 am 07:20 Mostly Sunny 39 4 37 3 93 93 ENE 1 2 30.03 1017 7 11 N/A
7:50 am 07:50 Mostly Sunny 41 5 39 4 93 93 Calm 30.03 1017 7 11 N/A
8:20 am 08:20 Mostly Sunny 45 7 37 3 76 76 VRB 1 2 30.03 1017 7 11 N/A
8:50 am 08:50 Mostly Sunny 46 8 39 4 76 76 NE 6 9 30.06 1018 7 11 N/A
9:20 am 09:20 Mostly Sunny 48 9 37 3 66 66 ENE 6 9 30.06 1018 7 11 N/A
9:50 am 09:50 Mostly Sunny 48 9 34 1 58 58 ENE 9 15 30.06 1018 7 11 N/A
10:20 am 10:20 Mostly Sunny 52 11 36 2 54 54 ENE 10 17 30.03 1017 7 11 N/A
10:50 am 10:50 Mostly Sunny 54 12 37 3 54 54 ENE 13 20 30.06 1018 7 11 N/A
11:20 am 11:20 Mostly Sunny 54 12 36 2 51 51 NE 14 22 30.06 1018 7 11 N/A
11:50 am 11:50 Mostly Sunny 54 12 36 2 51 51 NNE 14 22 30.06 1018 7 11 N/A
12:20 pm 12:20 Mostly Sunny 55 13 36 2 47 47 NNE 14 22 30.06 1018 7 11 N/A
12:50 pm 12:50 Mostly Sunny 55 13 32 0 41 41 NE 12 19 30.06 1018 7 11 N/A
1:20 pm 13:20 Mostly Sunny 54 12 28 -2 38 38 NE 10 17 30.06 1018 7 11 N/A
1:50 pm 13:50 Mostly Sunny 54 12 32 0 44 44 NE 12 19 30.06 1018 7 11 N/A
2:20 pm 14:20 Mostly Sunny 54 12 36 2 51 51 NE 13 20 30.06 1018 7 11 N/A
2:50 pm 14:50 Mostly Sunny 54 12 36 2 51 51 NE 13 20 30.06 1018 7 11 N/A
3:20 pm 15:20 Mostly Sunny 54 12 37 3 54 54 NE 13 20 30.06 1018 7 11 N/A
3:50 pm 15:50 Mostly Sunny 54 12 36 2 51 51 NNE 14 22 30.03 1017 7 11 N/A
4:20 pm 16:20 Mostly Sunny 55 13 37 3 51 51 NE 13 20 30.03 1017 7 11 N/A
4:50 pm 16:50 Mostly Sunny 54 12 36 2 51 51 ENE 14 22 30.03 1017 7 11 N/A
5:20 pm 17:20 Mostly Sunny 54 12 34 1 47 47 NE 15 24 30.03 1017 7 11 N/A
5:50 pm 17:50 Mostly Sunny 54 12 34 1 47 47 NE 12 19 30.06 1018 7 11 N/A
6:20 pm 18:20 Mostly Sunny 54 12 32 0 44 44 NE 14 22 30.06 1018 7 11 N/A
6:50 pm 18:50 Mostly Sunny 52 11 34 1 50 50 NE 15 24 30.06 1018 7 11 N/A
7:20 pm 19:20 Mostly Sunny 50 10 36 2 58 58 NE 13 20 30.03 1017 7 11 N/A
7:50 pm 19:50 Mostly Sunny 50 10 36 2 58 58 NE 9 15 30.06 1018 7 11 N/A
8:20 pm 20:20 Mostly Sunny 48 9 36 2 62 62 NE 8 13 30.06 1018 7 11 N/A
8:50 pm 20:50 Mostly Clear 45 7 36 2 71 71 NE 6 9 30.06 1018 7 11 N/A
9:20 pm 21:20 Mostly Clear 43 6 36 2 76 76 NE 6 9 30.09 1019 30 48 N/A
9:50 pm 21:50 Mostly Clear 41 5 34 1 76 76 NE 7 11 30.09 1019 30 48 N/A
10:20 pm 22:20 Mostly Clear 41 5 36 2 81 81 NE 6 9 30.09 1019 30 48 N/A
10:50 pm 22:50 Mostly Clear 39 4 36 2 87 87 ENE 7 11 30.09 1019 30 48 N/A
11:20 pm 23:20 Mostly Clear 41 5 36 2 81 81 NE 5 7 30.09 1019 30 48 N/A
11:50 pm 23:50 Mostly Clear 39 4 36 2 87 87 NE 7 11 30.09 1019 30 48 N/A

Powered by AerisWeather